Погода в Бежаницах

Россия / Псковская область     56°58′33″N   29°53′10″E
темп.,
°C
ветер,
м/с
пор.,
м/с
влажн.,
%
обл.,
%
осадки,
мм/ч
давл.,
гПа
погр.,
м
20 сентября, пн
пн2000:00+4всв51180100 0.8 1019807
03:00+4св51275100 0.8 1019860
06:00+4св61384100 0.4 1018968
09:00+3св61497100 2.3 1018935
12:00+3св61397100 0.8 1019865
15:00+4св61297100 1.3 1019881
18:00+4всв51197100 0.3 1019920
21:00+4св51198100 0.6 1019881
21 сентября, вт
вт2100:00+4св51098100 0.4 1018823
03:00+4св5998100 0.4 1018748
06:00+4св4998100 0.3 1018760
09:00+4св4898100 0.4 1018730
12:00+4ссв4798100 0.2 1018690
15:00+4ссв4798100 0.5 1018799
18:00+4ссв4798100 0.6 1018900
21:00+4ссв3798100 2.3 1018788
22 сентября, ср
ср2200:00+4ссв3798100 1.1 1018716
03:00+4ссв3798100 1.4 1018734
06:00+5ссв3798100 0.3 1018851
09:00+5ссв3698100 0.8 1018834
12:00+5ссв3698100 0.2 1018825
15:00+5с3797100 0.3 1018695
18:00+5с3797100 0.1 1017577
21:00+5с3797100 0.3 1017469
23 сентября, чт
чт2300:00+5ссв2698100 0.6 1016395
03:00+5ссв1398100 1.6 1014244
06:00+5всв1298100 0.5 1013105
09:00+5юв1297100 0.5 1011306
12:00+5ююв2394100 0.1 1010668
15:00+6ю2592100 0.1 1008570
18:00+6ююв379395 0.1 1006586
21:00+5ююв41095100 0.1 1004553
24 сентября, пт
пт2400:00+5ююв51296100 0.1 1000547
03:00+6ююв61495100 0.3 996737
06:00+6ююв61495100 1.4 993698
09:00+7ю51296100 3.7 991770
12:00+8ю3696100 1.7 992353
15:00+11юз3585100 2.5 992717
18:00+10зюз2588100 0.6 993129
21:00+8юз389540 0.9 995282